User: anonymous   Login
Location: Unspecified
(0.0000°N, 0.0000°E)
Time: 12:03:08
(UTC+00:00)
Language:

APRIZESAT 4 - Orbit

View from above orbital plane
View from above orbital plane
View from above satellite
View from above satellite

Ground track
Ground track

The orbit is defined by the following mean orbital elements,

1 35684U          26145.19519586 +.00000000 +00000-0 +85733-4 0 00001
2 35684  98.1414 220.0578 0044079  37.7522 322.6770 14.83841332    03
Epoch (UTC): 25 May 2026 04:41:04
Eccentricity: 0.0044079
inclination: 98.1414°
perigee height: 586 km
apogee height: 648 km
right ascension of ascending node: 220.0578°
argument of perigee: 37.7522°
revolutions per day: 14.83841332
mean anomaly at epoch: 322.6770°

The dashed part of the orbit path shows where the satellite is in the earth's shadow,  

DLR